Regional Weather Roundup
Issued by NWS

Home | Current Version | Previous Version | Text Only | Print | Product List | Glossary On
Versions: 1 2 3 4 5 6 7 8 9 10 11 12 13 14 15 16 17 18 19 20 21 22 23 24 25 26 27 28 29 30 31 32 33 34 35 36 37 38 39 40 41 42 43 44 45 46 47 48 49 50
000
ASUS43 KLMK 021010
RWRKY
KENTUCKY REGIONAL WEATHER ROUNDUP
NATIONAL WEATHER SERVICE LOUISVILLE KY
600 AM EDT TUE JUN 02 2015

NOTE "FAIR" INDICATES FEW OR NO CLOUDS BELOW 12,000 FEET
WITH NO SIGNIFICANT WEATHER AND/OR OBSTRUCTIONS TO VISIBILITY.

KYZ001>023-026-027-061>063-070>075-021100-
WESTERN AND SOUTH CENTRAL KENTUCKY

CITY           SKY/WX    TMP DP  RH WIND       PRES   REMARKS
PADUCAH        CLOUDY    60  56  86 N3        30.08S
HENDERSON      CLOUDY    57  54  88 CALM      30.09S
OWENSBORO      CLOUDY    59  54  83 E6        30.10R
HOPKINSVILLE   CLOUDY    60  58  94 N5        30.07S
BOWLING GREEN  CLOUDY    59  55  87 N6        30.07S
GLASGOW        CLOUDY    56  56 100 NE5       30.07S FOG
$$

KYZ024-025-028>034-038-045-046-053-021100-
NORTH CENTRAL KENTUCKY

CITY           SKY/WX    TMP DP  RH WIND       PRES   REMARKS
LOUISVILLE/SDF CLOUDY    58  51  78 E7        30.09S
LOUISVILLE/LOU CLOUDY    57  52  83 E7        30.10S
FORT KNOX      CLOUDY    56  53  89 NE6       30.07S
$$

KYZ035>037-039>044-047>052-055>060-089>105-021100-
NORTHEAST KENTUCKY

CITY           SKY/WX    TMP DP  RH WIND       PRES   REMARKS
LEXINGTON      CLOUDY    54  52  93 NE9       30.09F
COVINGTON      CLOUDY    54  48  80 NE8       30.11S
FRANKFORT      CLOUDY    54  52  93 NE5       30.09S FOG
$$

KYZ054-064>069-076>088-106>120-021100-
SOUTHEAST KENTUCKY

CITY           SKY/WX    TMP DP  RH WIND       PRES   REMARKS
JACKSON        FOG       53  52  96 CALM      30.08F VSB 1/4
LONDON         CLOUDY    57  53  86 NE3       30.07S FOG
SOMERSET       CLOUDY    54  54 100 CALM      30.08S
MIDDLESBORO    CLOUDY    60  58  93 CALM      30.07S
MONTICELLO     CLOUDY    58  58 100 NE5       30.09S
$$



USA.gov is the U.S. government's official web portal to all federal, state and local government web resources and services.